Location: Santaluz Observatory
(32.9930°N, 117.1510°W)
Time: 08:50:49
(UTC-07:00)

HST - Visible Passes

Search period start: 30 October 2014 00:00
Search period end: 08 November 2014 23:00
Orbit: 546 x 550 km, 28.5° (Epoch: 29 October)

Date Brightness Start Highest point End Pass type
(mag) Time Alt. Az. Time Alt. Az. Time Alt. Az.
30 Oct 1.6 18:44:32 10° WSW 18:48:32 45° S 18:51:55 14° ESE visible
30 Oct 3.2 20:25:51 10° WSW 20:27:27 20° WSW 20:27:27 20° WSW visible
31 Oct 1.6 18:37:10 10° WSW 18:41:11 45° S 18:45:03 11° ESE visible
31 Oct 3.0 20:18:35 10° WSW 20:20:35 22° SW 20:20:35 22° SW visible
01 Nov 1.7 18:29:49 10° WSW 18:33:48 44° S 18:37:48 10° ESE visible
01 Nov 2.8 20:11:22 10° WSW 20:13:46 23° SW 20:13:46 23° SW visible
02 Nov 1.8 17:22:28 10° WSW 17:26:26 41° S 17:30:23 10° ESE visible
02 Nov 2.8 19:04:13 10° WSW 19:07:00 21° SSW 19:07:00 21° SSW visible
03 Nov 2.0 17:15:09 10° WSW 17:19:02 38° S 17:22:55 10° ESE visible
03 Nov 3.0 18:57:10 10° WSW 19:00:00 18° SSW 19:00:18 18° SSW visible
04 Nov 3.3 18:50:19 10° SW 18:52:32 14° SSW 18:53:43 13° S visible
05 Nov 3.6 18:44:06 10° SW 18:45:02 11° SSW 18:45:58 10° SSW visible
